Flag for Canada Weather past 2 weeks in Peterborough, Ontario, Canada

Now
10 °F

Light snow. Mostly cloudy.


Feels Like: -7 °F
Forecast: -4 / 24 °F
Wind: 16 mph from Northwest

Location: Peterborough Airport

Current Time: Jan 30, 2015 at 9:30:42 AM

Latest Report: Jan 30, 2015 at 9:00 AM


Visibility: 8 mi

Pressure: 30.11 "Hg

Humidity: 72%

Dew point: 3 °F

Location of PeterboroughLocation

Historic Weather in Peterborough — Graph

°F

Peterborough temperature yesterday

Maximum temperature yesterday: 30 °F (at 3:57 PM)
Minimum temperature yesterday: 5 °F (at 12:00 AM)
Average temperature yesterday: 22 °F

Past Weeks' High & Low Weather Summary

 TemperatureHumidityPressure
High39 °F (Jan 18, 4:00 AM)100% (Jan 18, 4:00 PM)30.38 "Hg (Jan 18, 4:00 PM)
Low-11 °F (Jan 17, 1:00 AM)23% (Jan 27, 4:00 PM)29.44 "Hg (Jan 24, 4:00 PM)
Average17 °F76%29.99 "Hg
* Reported Jan 15 8:00 AM — Jan 30 8:00 AM, Peterborough, Weather by CustomWeather, © 2014

Note: Actual official high and low records may vary slightly from our data, if they occured in-between our weather recording intervals... More about our weather records

Advertising

Peterborough weather history for previous 24 hours

 ConditionsComfort  
Time TempWeatherWind HumidityBarometerVisibility
8:00 AM
Jan 30
12 °FLight snow. Overcast.18 mph79%30.08 "Hg9 mi
7:00 AM16 °FLight snow. Overcast.15 mph86%30.05 "Hg5 mi
6:57 AM16 °FLight snow. Mostly cloudy.13 mph86%30.05 "Hg5 mi
6:00 AM21 °FLight snow. Overcast.17 mph80%29.99 "Hg9 mi
5:59 AM21 °FLight snow. Overcast.20 mph86%29.98 "Hg9 mi
5:00 AM25 °FLight snow. Mostly cloudy.8 mph93%29.94 "Hg9 mi
4:48 AM25 °FLight snow. Mostly cloudy.8 mph93%29.94 "Hg9 mi
4:00 AM25 °FLight snow. Mostly cloudy.12 mph93%29.90 "Hg9 mi
3:00 AM27 °FLight snow. Mostly cloudy.12 mph86%29.88 "Hg9 mi
2:00 AM27 °FLight snow. Mostly cloudy.14 mph86%29.85 "Hg9 mi
1:00 AM27 °FLight snow. Overcast.10 mph100%29.83 "Hg9 mi
12:00 AM27 °FOvercast.9 mph100%29.80 "Hg9 mi
11:00 PM
Jan 29
27 °FLight snow. Mostly cloudy.8 mph100%29.79 "Hg4 mi
10:00 PM28 °FLight snow. Overcast.8 mph93%29.77 "Hg2 mi
9:46 PM28 °FLight snow. Overcast.7 mph93%29.77 "Hg2 mi
9:00 PM28 °FLight snow. Overcast.9 mph93%29.76 "Hg2 mi
8:51 PM28 °FLight snow. Overcast.8 mph93%29.76 "Hg2 mi
8:00 PM28 °FLight snow. Mostly cloudy.2 mph100%29.75 "Hg3 mi
7:00 PM28 °FLight snow. Mostly cloudy.No wind100%29.75 "Hg1 mi
6:00 PM28 °FLight snow. Mostly cloudy.2 mph100%29.75 "Hg4 mi
5:54 PM28 °FLight snow. Mostly cloudy.2 mph100%29.75 "Hg3 mi
5:00 PM28 °FSnow. Low clouds.6 mph100%29.75 "Hg1 mi
4:00 PM30 °FLight snow. Ice fog.9 mph93%29.75 "Hg2 mi
3:57 PM30 °FLight snow. Mostly cloudy.8 mph93%29.75 "Hg2 mi
3:00 PM27 °FLight snow. Ice fog.6 mph100%29.77 "Hg1 mi
2:56 PM27 °FSnow. Ice fog.6 mph100%29.77 "Hg1 mi
2:00 PM27 °FLight snow. Ice fog.8 mph93%29.80 "Hg1 mi
1:04 PM27 °FLight snow. Cloudy.7 mph74%29.85 "Hg9 mi
12:00 PM27 °FMore clouds than sun.10 mph80%29.91 "Hg9 mi
11:46 AM27 °FLight snow. Cloudy.10 mph80%29.91 "Hg9 mi
11:00 AM27 °FMostly cloudy.14 mph64%29.97 "Hg9 mi
10:00 AM27 °FOvercast.9 mph59%30.01 "Hg9 mi
9:00 AM25 °FOvercast.7 mph63%30.07 "Hg9 mi
Weather by CustomWeather, © 2014

See weather overviewHow to use our weather pages